Regional Weather Roundup
Issued by NWS

Home | Current Version | Previous Version | Graphics & Text | Print | Product List | Glossary On
Versions: 1 2 3 4 5 6 7 8 9 10 11 12 13 14 15 16 17 18 19 20 21 22 23 24 25 26 27 28 29 30 31 32 33 34 35 36 37 38 39 40 41 42 43 44 45 46 47 48 49 50
000
ASUS45 KBOU 061007
RWRCO

WEATHER ROUNDUP FOR COLORADO
NATIONAL WEATHER SERVICE DENVER/BOULDER CO
400 AM MDT WED MAY 06 2015

NOTE: "FAIR" INDICATES FEW OR NO CLOUDS BELOW 12000 FEET WITH NO
SIGNIFICANT WEATHER AND/OR OBSTRUCTIONS TO VISIBILITY.

COZ001>005-013-030-031-061100-
...NORTHWEST COLORADO...

CITY           SKY/WX    TMP DP  RH WIND       PRES   REMARKS
CRAIG          CLOUDY    49  46  90 W8        29.80S
HAYDEN         CLOUDY    48  43  81 W13       29.80S
MEEKER         RAIN      47  44  90 CALM      29.82S FOG
MOUNT WERNER   NOT AVBL
STEAMBOAT SPGS CLOUDY    44  42  94 E5        29.80S
WALDEN         CLOUDY    37  37 100 CALM      29.81S VSB 1/2
$$

COZ006>008-011-061100-
...WEST CENTRAL VALLEYS...

CITY           SKY/WX    TMP DP  RH WIND       PRES   REMARKS
GRAND JUNCTION LGT RAIN  51  50  96 N5        29.79F FOG
MONTROSE       CLOUDY    50  47  89 E3        29.84F
EAGLE          CLOUDY    43  43 100 E5        29.86S
RIFLE          LGT RAIN  48  45  89 CALM      29.82R FOG
DELTA          CLOUDY    53  52  95 CALM      29.82R
NUCLA          LGT RAIN  50  45  81 W5        29.90R
$$

COZ017>023-064>068-061100-
...SOUTHWEST COLORADO...

CITY           SKY/WX    TMP DP  RH WIND       PRES   REMARKS
DURANGO        LGT RAIN  46  45  93 SW10      29.91S FOG
CORTEZ         CLOUDY    49  46  90 S9        29.89F
PAGOSA SPRINGS CLOUDY    45  44  99 S5        29.94S
TELLURIDE      HVY RAIN  38  38 100 CALM      29.97S
WOLF CREEK PAS NOT AVBL
$$

COZ009-010-012-014-032>034-037-058>063-061100-
...CENTRAL COLORADO...

CITY           SKY/WX    TMP DP  RH WIND       PRES   REMARKS
ASPEN          LGT RAIN N/A N/A N/A CALM      29.87S
BUENA VISTA    NOT AVBL
COPPER MTN     CLOUDY    34  30  86 W8        29.96S WCI  27
BERTHOUD PASS  SNOW      27  19  74 NW20      29.95S VSB 1/4 WCI  13
COTTONWOOD PAS LGT RAIN  41  36  81 W7        29.88S
GUNNISON       MOCLDY    43  37  81 CALM      29.90R
KREMMLING      DRIZZLE   39  34  81 SW14      29.84S
LEADVILLE      LGT RAIN  35  33  92 NW5       29.88S WCI  31
MONARCH PASS   CLOUDY    30  30 100 MISG      30.06R
SALIDA         CLOUDY    48  39  72 W8        29.88S
SUNLIGHT       LGT SNOW  34  34 100 CALM      29.98R
WILKERSON PASS SNOW      32  32 100 W7        29.93S VSB 1/2 WCI  26
$$

COZ069>075-061100-
...SAN LUIS VALLEY/SANGRE DE CRISTO MOUNTAINS...

CITY           SKY/WX    TMP DP  RH WIND       PRES   REMARKS
ALAMOSA        CLOUDY    42  39  89 CALM      29.86S
LA VETA PASS   DRIZZLE  N/A N/A N/A MISG      29.87F
SAGUACHE       DRIZZLE   41  41 100 SE3       29.88S
$$

COZ035-036-038>040-061100-
...NORTHERN COLORADO FRONT RANGE...

CITY           SKY/WX    TMP DP  RH WIND       PRES   REMARKS
DENVER INTL AP LGT RAIN  49  47  93 W10       29.70S
DMNS CITY PARK   N/A     48  47  94 SW2       29.71F
AURORA         NOT AVBL
FRONT RANGE AP LGT RAIN  50  50 100 W10       29.71F
ERIE MUNI ARPT CLOUDY    49  48  96 CALM      29.71S
BOULDER MUN AP CLOUDY    48  46  93 S3        29.70F
CENTENNIAL     CLOUDY    48  46  93 W5        29.73S
BROOMFIELD     DRIZZLE   46  46 100 CALM      29.72F
FORT COLLINS   CLOUDY    50  46  87 CALM      29.71S
LONGMONT       CLOUDY    50  48  93 CALM      29.72S
$$

COZ041-046-047-076>085-087-088-061100-
...PIKES PEAK/PALMER DIVIDE AND SOUTHERN FOOTHILLS...

CITY           SKY/WX    TMP DP  RH WIND       PRES   REMARKS
COLO. SPRINGS  LGT RAIN  46  45  96 CALM      29.74F
A. F. ACADEMY  CLOUDY    44  44 100 N2        29.74F
ELLICOTT       CLOUDY   N/A N/A N/A W3        29.72F
FALCON         CLOUDY    44  44 100 SW6       29.76F FOG
FORT CARSON    CLOUDY    46  46  99 SE1       29.71F
LIMON          CLOUDY    48  46  93 SW6       29.71S
MONUMENT HILL  CLOUDY    41  39  93 SW5       29.75S
TRINIDAD       CLOUDY    48  45  89 NW3       29.74S
$$

COZ042>045-048>051-090-091-061100-
...NORTHEAST COLORADO...

CITY           SKY/WX    TMP DP  RH WIND       PRES   REMARKS
GREELEY ARPT     N/A    N/A N/A N/A MISG        N/A
AKRON          CLOUDY    51  51 100 S18       29.64F
BURLINGTON     CLOUDY    50  48  93 SE10      29.72S
WRAY           CLOUDY   N/A N/A N/A E7        29.70R
STERLING       CLOUDY    52  52 100 E7        29.62F
HOLYOKE        NOT AVBL
FORT MORGAN    DRIZZLE   51  49  95 N9        29.63F
$$

COZ086-089-092>099-061100-
...SOUTHEAST COLORADO...

CITY           SKY/WX    TMP DP  RH WIND       PRES   REMARKS
PUEBLO         MOCLDY    50  48  93 CALM      29.69F
LA JUNTA       CLOUDY    53  50  89 CALM      29.69F
LAMAR          CLOUDY    51  50  96 E6        29.68F
SPRINGFIELD      N/A     44  43  96 SW6       29.71S
$$


USA.gov is the U.S. government's official web portal to all federal, state and local government web resources and services.